When you browse on this site, cookies collect data to enhance your experience and personalize the content and advertising you see.
Visit our Privacy Policy to learn more. By continuing to use the site, you agree to this use of cookies and data.
  • în România
  • Lista ţărilor
  • Pe 7 zile
  • Temperatura apei
  • Meteo pe hartă
  • Widget-uri
  • user-avatar
    Intrare

    Meteo pe oră la Bujumbura

    Astăzi, 21 Noiembrie, Joi

    Timp Temperatura Precipitaţii Vânt Presiune Umiditate
    00:00 +23°C° 0 mm 1 m/s 691 mmHg 77%
    01:00 +23°C° 0 mm 1 m/s 691 mmHg 77%
    02:00 +23°C° 0 mm 2 m/s 691 mmHg 75%
    03:00 +23°C° 0 mm 2 m/s 691 mmHg 75%
    04:00 +23°C° 0 mm 2 m/s 691 mmHg 75%
    05:00 +21°C° 0 mm 2 m/s 691 mmHg 75%
    06:00 +24°C° 0 mm 2 m/s 692 mmHg 72%
    07:00 +26°C° 0 mm 2 m/s 692 mmHg 68%
    08:00 +27°C° 0 mm 2 m/s 693 mmHg 65%
    09:00 +29°C° 0.1 mm 1 m/s 692 mmHg 62%
    10:00 +31°C° 0.1 mm 1 m/s 692 mmHg 58%
    11:00 +32°C° 0.1 mm 1 m/s 692 mmHg 55%
    12:00 +32°C° 0.8 mm 1 m/s 691 mmHg 58%
    13:00 +31°C° 0.8 mm 2 m/s 690 mmHg 62%
    14:00 +31°C° 0.8 mm 3 m/s 690 mmHg 65%
    15:00 +30°C° 0.9 mm 3 m/s 689 mmHg 71%
    16:00 +29°C° 0.9 mm 3 m/s 689 mmHg 76%
    17:00 +27°C° 0.9 mm 3 m/s 689 mmHg 81%
    18:00 +26°C° 0.1 mm 3 m/s 689 mmHg 82%
    19:00 +26°C° 0.1 mm 2 m/s 690 mmHg 83%
    20:00 +25°C° 0.1 mm 2 m/s 691 mmHg 85%
    21:00 +24°C° 0 mm 2 m/s 691 mmHg 85%
    22:00 +24°C° 0 mm 1 m/s 691 mmHg 85%
    23:00 +24°C° 0 mm 1 m/s 691 mmHg 85%

    Mâine, 22 Noiembrie, Vineri

    Timp Temperatura Precipitaţii Vânt Presiune Umiditate
    00:00 +24°C° 0 mm 1 m/s 691 mmHg 85%
    01:00 +24°C° 0 mm 2 m/s 690 mmHg 85%
    02:00 +23°C° 0 mm 2 m/s 690 mmHg 84%
    03:00 +23°C° 0 mm 2 m/s 690 mmHg 84%
    04:00 +23°C° 0 mm 2 m/s 690 mmHg 83%
    05:00 +23°C° 0 mm 2 m/s 690 mmHg 82%
    06:00 +25°C° 0 mm 2 m/s 691 mmHg 78%
    07:00 +27°C° 0 mm 1 m/s 692 mmHg 74%
    08:00 +29°C° 0 mm 1 m/s 692 mmHg 69%
    09:00 +30°C° 0.6 mm 1 m/s 692 mmHg 67%
    10:00 +31°C° 0.6 mm 1 m/s 691 mmHg 66%
    11:00 +32°C° 0.6 mm 1 m/s 690 mmHg 64%
    12:00 +32°C° 1 mm 2 m/s 690 mmHg 66%
    13:00 +31°C° 1 mm 2 m/s 690 mmHg 67%
    14:00 +31°C° 1 mm 3 m/s 689 mmHg 69%
    15:00 +30°C° 1 mm 2 m/s 689 mmHg 73%
    16:00 +29°C° 1 mm 2 m/s 689 mmHg 78%
    17:00 +28°C° 1 mm 1 m/s 688 mmHg 83%
    18:00 +27°C° 1.3 mm 1 m/s 689 mmHg 87%
    19:00 +26°C° 1.3 mm 1 m/s 690 mmHg 91%
    20:00 +24°C° 1.3 mm 1 m/s 691 mmHg 95%
    21:00 +24°C° 0.3 mm 1 m/s 691 mmHg 95%
    22:00 +24°C° 0.3 mm 1 m/s 691 mmHg 95%
    23:00 +24°C° 0.3 mm 1 m/s 691 mmHg 95%

    Poimâine, 23 Noiembrie, Sâmbătă

    Timp Temperatura Precipitaţii Vânt Presiune Umiditate
    00:00 +24°C° 0.2 mm 1 m/s 691 mmHg 95%
    01:00 +24°C° 0.2 mm 1 m/s 691 mmHg 95%
    02:00 +24°C° 0.2 mm 2 m/s 690 mmHg 94%
    03:00 +24°C° 0.7 mm 1 m/s 690 mmHg 95%
    04:00 +24°C° 0.7 mm 1 m/s 690 mmHg 95%
    05:00 +24°C° 0.7 mm 1 m/s 690 mmHg 95%
    06:00 +24°C° 0.6 mm 1 m/s 691 mmHg 94%
    07:00 +24°C° 0.6 mm 1 m/s 692 mmHg 93%
    08:00 +25°C° 0.6 mm 1 m/s 692 mmHg 92%
    09:00 +25°C° 0.6 mm 1 m/s 692 mmHg 91%
    10:00 +25°C° 0.6 mm 1 m/s 692 mmHg 90%
    11:00 +25°C° 0.6 mm 1 m/s 691 mmHg 90%
    12:00 +25°C° 0.9 mm 1 m/s 691 mmHg 91%
    13:00 +25°C° 0.9 mm 1 m/s 690 mmHg 91%
    14:00 +25°C° 0.9 mm 1 m/s 690 mmHg 92%
    15:00 +24°C° 0.5 mm 1 m/s 690 mmHg 93%
    16:00 +24°C° 0.5 mm 1 m/s 690 mmHg 95%
    17:00 +24°C° 0.5 mm 1 m/s 690 mmHg 96%
    18:00 +23°C° 1.8 mm 1 m/s 690 mmHg 96%
    19:00 +23°C° 1.8 mm 1 m/s 691 mmHg 97%
    20:00 +23°C° 1.8 mm 1 m/s 691 mmHg 97%
    21:00 +23°C° 0.8 mm 1 m/s 691 mmHg 97%
    22:00 +23°C° 0.8 mm 1 m/s 692 mmHg 97%
    23:00 +23°C° 0.8 mm 1 m/s 692 mmHg 97%

    24 Noiembrie, Duminică

    Timp Temperatura Precipitaţii Vânt Presiune Umiditate
    00:00 +23°C° 2 mm 1 m/s 692 mmHg 97%
    01:00 +23°C° 2 mm 1 m/s 691 mmHg 97%
    02:00 +22°C° 2 mm 1 m/s 691 mmHg 98%
    03:00 +22°C° 0.9 mm 1 m/s 691 mmHg 97%
    04:00 +21°C° 0.9 mm 2 m/s 691 mmHg 97%
    05:00 +21°C° 0.9 mm 2 m/s 691 mmHg 97%
    06:00 +23°C° 0.3 mm 2 m/s 692 mmHg 96%
    07:00 +23°C° 0.3 mm 1 m/s 692 mmHg 95%
    08:00 +23°C° 0.3 mm 1 m/s 693 mmHg 94%
    09:00 +24°C° 0.1 mm 1 m/s 693 mmHg 93%
    10:00 +24°C° 0.1 mm 1 m/s 693 mmHg 91%
    11:00 +23°C° 0.1 mm 0 m/s 693 mmHg 89%
    12:00 +24°C° 0.7 mm 1 m/s 692 mmHg 90%
    13:00 +24°C° 0.7 mm 1 m/s 692 mmHg 91%
    14:00 +24°C° 0.7 mm 1 m/s 691 mmHg 93%
    15:00 +23°C° 1 mm 1 m/s 691 mmHg 94%
    16:00 +23°C° 1 mm 1 m/s 691 mmHg 95%
    17:00 +23°C° 1 mm 2 m/s 691 mmHg 96%
    18:00 +23°C° 0.1 mm 1 m/s 691 mmHg 96%
    19:00 +22°C° 0.1 mm 1 m/s 692 mmHg 95%
    20:00 +22°C° 0.1 mm 1 m/s 692 mmHg 95%
    21:00 +22°C° 0 mm 1 m/s 692 mmHg 94%
    22:00 +22°C° 0 mm 1 m/s 692 mmHg 93%
    23:00 +22°C° 0 mm 1 m/s 692 mmHg 93%

    25 Noiembrie, Luni

    Timp Temperatura Precipitaţii Vânt Presiune Umiditate
    00:00 +22°C° 0 mm 1 m/s 691 mmHg 93%
    01:00 +20°C° 0 mm 0 m/s 691 mmHg 93%
    02:00 +20°C° 0 mm 0 m/s 690 mmHg 93%
    03:00 +22°C° 0 mm 1 m/s 691 mmHg 93%
    04:00 +22°C° 0 mm 1 m/s 691 mmHg 92%
    05:00 +22°C° 0 mm 1 m/s 691 mmHg 92%
    06:00 +23°C° 0 mm 1 m/s 692 mmHg 92%
    07:00 +23°C° 0 mm 1 m/s 692 mmHg 91%
    08:00 +21°C° 0 mm 0 m/s 693 mmHg 91%
    09:00 +22°C° 0.2 mm 0 m/s 693 mmHg 89%
    10:00 +23°C° 0.2 mm 0 m/s 693 mmHg 88%
    11:00 +23°C° 0.2 mm 0 m/s 693 mmHg 87%
    12:00 +25°C° 0.4 mm 1 m/s 692 mmHg 86%
    13:00 +25°C° 0.4 mm 1 m/s 692 mmHg 86%
    14:00 +25°C° 0.4 mm 1 m/s 691 mmHg 85%
    15:00 +25°C° 0.6 mm 1 m/s 691 mmHg 87%
    16:00 +25°C° 0.6 mm 1 m/s 691 mmHg 89%
    17:00 +24°C° 0.6 mm 1 m/s 691 mmHg 91%
    18:00 +24°C° 0.3 mm 1 m/s 691 mmHg 91%
    19:00 +24°C° 0.3 mm 1 m/s 692 mmHg 91%
    20:00 +23°C° 0.3 mm 2 m/s 692 mmHg 91%
    21:00 +23°C° 0 mm 1 m/s 692 mmHg 91%
    22:00 +23°C° 0 mm 1 m/s 692 mmHg 90%
    23:00 +23°C° 0 mm 1 m/s 692 mmHg 90%

    26 Noiembrie, Marţi

    Timp Temperatura Precipitaţii Vânt Presiune Umiditate
    00:00 +23°C° 0 mm 1 m/s 692 mmHg 89%
    01:00 +23°C° 0 mm 1 m/s 691 mmHg 87%
    02:00 +23°C° 0 mm 1 m/s 691 mmHg 86%
    03:00 +23°C° 0 mm 1 m/s 691 mmHg 86%
    04:00 +23°C° 0 mm 1 m/s 691 mmHg 85%
    05:00 +23°C° 0 mm 1 m/s 691 mmHg 85%
    06:00 +23°C° 0 mm 1 m/s 692 mmHg 84%
    07:00 +24°C° 0 mm 1 m/s 692 mmHg 83%
    08:00 +24°C° 0 mm 1 m/s 693 mmHg 83%
    09:00 +25°C° 0.1 mm 1 m/s 693 mmHg 82%
    10:00 +24°C° 0.1 mm 0 m/s 692 mmHg 80%
    11:00 +25°C° 0.1 mm 0 m/s 692 mmHg 79%
    12:00 +27°C° 0.8 mm 1 m/s 691 mmHg 77%
    13:00 +28°C° 0.8 mm 1 m/s 691 mmHg 75%
    14:00 +29°C° 0.8 mm 1 m/s 690 mmHg 73%
    15:00 +28°C° 0.9 mm 1 m/s 690 mmHg 77%
    16:00 +27°C° 0.9 mm 1 m/s 690 mmHg 81%
    17:00 +26°C° 0.9 mm 1 m/s 690 mmHg 85%
    18:00 +26°C° 0.5 mm 1 m/s 690 mmHg 85%
    19:00 +25°C° 0.5 mm 1 m/s 691 mmHg 86%
    20:00 +25°C° 0.5 mm 1 m/s 691 mmHg 87%
    21:00 +24°C° 0.2 mm 1 m/s 691 mmHg 88%
    22:00 +24°C° 0.2 mm 1 m/s 691 mmHg 89%
    23:00 +24°C° 0.2 mm 1 m/s 692 mmHg 90%
    Arată mai mult